Regional Weather Roundup
Issued by NWS

Home | Current Version | Previous Version | Graphics & Text | Print | Product List | Glossary On
Versions: 1 2 3 4 5 6 7 8 9 10 11 12 13 14 15 16 17 18 19 20 21 22 23 24 25 26 27 28 29 30 31 32 33 34 35 36 37 38 39 40 41 42 43 44 45 46 47 48 49 50
784
ASUS43 KMKX 241900
RWRWI

WISCONSIN REGIONAL WEATHER ROUNDUP
NATIONAL WEATHER SERVICE MILWAUKEE/SULLIVAN WI
200 PM CDT TUE MAY 24 2016

NOTE: "FAIR" INDICATES FEW OR NO CLOUDS BELOW 12,000 FEET WITH NO
SIGNIFICANT WEATHER AND/OR OBSTRUCTIONS TO VISIBILITY.

WIZ001-002-006>008-014>016-023>028-242000-
NORTHWEST WISCONSIN

CITY           SKY/WX    TMP DP  RH WIND       PRES   REMARKS
SUPERIOR ARPT  SUNNY     71  60  66 NE6       29.88F
ASHLAND        PTSUNNY   69  64  84 N12       29.88S
HAYWARD        CLOUDY    74  59  59 W8        29.89S
SIREN          MOSUNNY   76  60  58 SW7       29.89S
CUMBERLAND     CLOUDY    75  55  50 SW13      29.89S
RICE LAKE      CLOUDY    78  53  42 SW12      29.91S
CHETEK         CLOUDY    76  60  55 W9        29.90S
LADYSMITH      PTSUNNY   75  61  61 S9        29.92S
EAU CLAIRE     NOT AVBL
MENOMONIE      CLOUDY    79  70  74 SW9       29.90R HX  82
NEW RICHMOND   CLOUDY    78  55  44 W9        29.90S
OSCEOLA        SUNNY     78  60  53 SW9G16    29.92R HX  80
$$

WIZ003>005-009-010-017-018-242000-
NORTH CENTRAL WISCONSIN

CITY           SKY/WX    TMP DP  RH WIND       PRES   REMARKS
MANITOWISH WTR PTSUNNY   70  65  84 S6        29.90S
ARBOR VITAE    HVY RAIN  67  63  86 S10       29.91F
WOODRUFF       HVY RAIN  67  63  86 S10       29.91F
RHINELANDER    CLOUDY    71  61  70 SW8       29.93F
EAGLE RIVER      N/A     69  59  70 SW7       29.91F
LAND O LAKES   LGT RAIN  70  60  71 SW6       29.92S
PHILLIPS       MOSUNNY   71  62  71 SW8       29.90F
TOMAHAWK       PTSUNNY   71  61  70 S3        29.93S
MEDFORD        CLOUDY    71  63  76 SW7       29.93S
MERRILL        CLOUDY    71  60  68 SW7       29.93S
$$

WIZ029-030-035-036-043>047-242000-
CENTRAL WISCONSIN

CITY           SKY/WX    TMP DP  RH WIND       PRES   REMARKS
WAUSAU         CLOUDY    77  60  55 S8        29.91S
MOSINEE        NOT AVBL
MARSHFIELD     CLOUDY    79  59  50 SW16G22   29.91F HX  80
STEVENS POINT  CLOUDY    73  58  57 SW8       29.93S
WAUPACA        CLOUDY    79  60  52 SW8       29.92F HX  80
WAUTOMA        CLOUDY    79  59  50 SW12      29.92F HX  80
WISC RAPIDS    CLOUDY    80  58  46 SW14      29.93F HX  80
CAMP DOUGLAS   NOT AVBL
$$

WIZ011>013-019>022-031-037>040-048>050-242000-
NORTHEAST WISCONSIN

CITY           SKY/WX    TMP DP  RH WIND       PRES   REMARKS
ANTIGO         CLOUDY    70  61  72 W7        29.94S
SHAWANO        CLOUDY    76  60  57 SW5       29.92R
OCONTO         CLOUDY    75  60  59 SW5       29.89S
STURGEON BAY   NOT AVBL
GREEN BAY      CLOUDY    80  59  48 W12       29.90F HX  81
MANITOWOC      NOT AVBL
APPLETON       PTSUNNY   81  55  41 SW17G26   29.91S HX  80
CLINTONVILLE   CLOUDY    77  55  47 SW10      29.91S
OSHKOSH        PTSUNNY   77  59  53 SW9       29.92S
$$

WIZ032>034-041-042-053>061-242000-
SOUTHWEST WISCONSIN

CITY           SKY/WX    TMP DP  RH WIND       PRES   REMARKS
LA CROSSE      CLOUDY    79  60  52 SE7       29.91F HX  80
SPARTA         CLOUDY    77  60  55 W8        29.93S
VIROQUA        CLOUDY    78  56  46 W3        29.95S
BOSCOBEL       MOSUNNY   82  59  45 VRB5      29.92F HX  82
PRAIRIE DU CHI CLOUDY    80  55  42 S8        29.91F HX  80
PLATTEVILLE    CLOUDY    76  64  65 W5        29.95F
$$

WIZ056-057-062-063-064-067-068-242000-
SOUTH CENTRAL WISCONSIN

CITY           SKY/WX    TMP DP  RH WIND       PRES   REMARKS
REEDSBURG      CLOUDY    80  60  50 W12G17    29.93S HX  80
BARABOO/DELLS  CLOUDY    80  55  42 SW9G16    29.93F HX  80
LONE ROCK      NOT AVBL
MINERAL POINT  CLOUDY    79  61  53 SW7       29.96F HX  80
MADISON        LGT RAIN  76  59  55 VRB3      29.94F
MIDDLETON      PTSUNNY   76  62  60 W10       29.96F
WATERTOWN      NOT AVBL
MONROE         CLOUDY    79  55  44 W14       29.95S
JANESVILLE     PTSUNNY   84  55  37 SW12G17   29.93F HX  83
$$

WIZ051-052-058>065-066-070>072-242000-
SOUTHEAST WISCONSIN

CITY           SKY/WX    TMP DP  RH WIND       PRES   REMARKS
MILWAUKEE      CLOUDY    83  59  44 S13G22    29.94F HX  83
WAUKESHA       NOT AVBL
MILWAUKEE/TIMM PTSUNNY   81  54  39 SW14G22   29.94F HX  80
RACINE         PTSUNNY   83  57  41 S13G21    29.96S HX  82
BURLINGTON     MOSUNNY   84  54  35 SW12G20   29.94F HX  82
KENOSHA        MOSUNNY   84  59  42 S14G22    29.95F HX  84
FOND DU LAC    LGT RAIN  76  59  55 SW9G21    29.94R
SHEBOYGAN      CLOUDY    77  57  50 S9        29.93R
WEST BEND      PTSUNNY   77  55  47 SW10      29.94S
JUNEAU         LGT RAIN  70  61  73 SW13      29.97R
$$

LSZ147-162-242000-
LAKE SUPERIOR

STATION/POSITION TIME  TEMP    WIND        PRES    WAVE
                       AIR SEA DIR/SP/G            HT/PER
                 (UTC) (F)     (DEG/KT/KT) (MB)    (FT/S)
W MID LAKE BUOY  1750   49 38  130/ 10/ 12 1011.4R   0
DEVILS ISLAND    1800   50      20/  9/ 11 1013.2R
PORT WING        1720   51      50/  6/ 16 1011.9R
SAXON HARBOR     1840   60     340/  2/  3 1011.2F
$$

LMZ867-665-643>646-242000-
LAKE MICHIGAN

STATION/POSITION TIME  TEMP    WIND        PRES    WAVE
                       AIR SEA DIR/SP/G            HT/PER
                 (UTC) (F)     (DEG/KT/KT) (MB)    (FT/S)
CHAMBERS ISLAND  1800   74     190/  4/  7 1012.2F
N MID LAKE BUOY  1750   47 45  180/  8/  8 1013.2F   2/ 4
NORTHPORT PIER   1800   55     150/  9/ 13 1012.5F
SISTER BAY       1849   75     180/ 16/ 19   N/A
ALGOMA LAKESHORE 1816          200/  9/ 10   N/A
KEWAUNEE LAKESHO 1800   55     180/ 15/ 16 1012.4R
SHEBOYGAN LAKESH 1800   60     170/ 22/ 23 1013.7F
PORT WASHINGTON  1840   62     180/  5/  8 1014.6S
S MID LAKE BUOY  1750   53 48  160/ 10/ 10 1015.4F   1
KENOSHA   LAKESH 1800   62     160/  9/ 16 1014.2F
$$

TC  - TEMPERATURE IN CELSIUS
VSB - VISIBILITY IN STATUTE MILES
WCI - WIND CHILL INDEX
HX  - HEAT INDEX





USA.gov is the U.S. government's official web portal to all federal, state and local government web resources and services.